SCP
-0 -0 0 0 0 0 0 0 0 0 0 0 0 0 0 0 0 0 0 -0 0 -0 -0 -1 -1 -0 0 0 -0 0 0 0 0 -0 -0 -0 -0 0 0 -0 -0 0 0 0 0 0 0 0 0
0 -0 0 0 0 0 0 0 0 0 0 0 0 0 0 0 0 0 0 -0 0 -0 -0 -0 -1 -0 0 0 0 0 0 0 0 -0 0 0 0 0 0 0 0 0 0 0 0 0 0 0 0
-0 -0 0 0 0 0 0 0 0 0 0 0 0 0 0 0 0 0 0 0 0 0 -0 -0 -1 -0 0 0 0 0 0 0 0 -0 0 -0 -0 -0 -0 -0 0 0 0 0 0 0 0 0 0
0 0 0 0 0 0 0 0 0 0 0 0 0 0 0 0 0 0 0 0 0 0 -0 -0 -1 -0 0 0 0 0 0 0 0 -0 -0 -0 -0 -0 -0 -0 0 0 0 0 0 0 0 0 0
0 0 0 0 0 0 0 0 0 0 0 0 0 0 0 0 0 0 0 0 0 -0 -0 -0 -0 -0 0 0 0 0 0 0 0 -0 -0 -0 -0 -0 -0 -0 -0 0 0 0 0 0 0 0 0
0 0 0 0 0 0 0 0 0 0 0 0 0 0 0 0 0 0 0 0 0 0 0 -0 -0 -0 0 0 0 0 0 0 0 -0 -0 -0 -0 -0 -0 -0 -0 0 0 0 0 0 0 0 0
0 0 0 0 0 0 0 0 0 0 0 0 0 0 0 0 0 0 0 0 0 0 0 0 -0 -0 0 0 -0 -0 -0 -0 0 0 -0 -0 -0 -0 -0 0 0 0 0 0 0 0 0 0 0
0 0 0 0 0 0 0 0 0 0 0 0 0 0 0 0 0 0 0 0 0 0 0 0 0 -0 0 -0 -0 -0 -1 -0 -0 -0 -0 -0 -0 0 0 0 0 0 0 0 0 0 0 0 0
0 0 0 0 0 0 0 0 0 0 0 0 0 0 0 0 0 0 0 0 0 0 0 0 0 -0 -0 -0 -0 -0 -0 -0 -0 -0 -0 0 0 0 0 0 0 0 0 0 0 0 0 0 0
0 0 0 0 0 0 0 0 0 0 -0 0 0 0 0 0 0 0 0 0 0 0 0 0 0 0 0 -0 -0 -0 -0 -0 -0 -0 0 -0 0 0 0 0 0 0 0 0 0 0 0 0 0
0 0 0 0 0 0 0 0 0 0 -0 -0 0 0 0 0 0 0 0 0 0 0 0 0 0 0 0 0 -0 -0 -0 -0 -0 -0 -0 0 0 0 0 0 0 0 0 0 0 0 0 0 0
0 0 0 0 0 0 0 0 0 0 0 0 -0 -0 -0 -0 0 0 0 0 0 0 0 0 0 1 1 0 0 0 0 -0 -0 -0 0 0 0 0 0 0 0 0 0 0 0 0 0 0 0
0 0 0 0 0 0 0 0 0 0 0 0 -0 -0 -0 -0 -0 -0 -0 -0 0 0 -0 -0 0 1 1 1 0 0 0 0 0 0 0 0 0 0 0 0 0 0 0 0 0 0 0 0 0
0 0 0 0 0 0 0 0 0 0 0 0 -0 -0 0 -0 -0 -0 -0 0 0 0 0 0 -0 0 1 1 1 1 1 1 1 0 0 0 0 0 0 0 0 0 0 0 0 0 0 0 0
0 0 0 0 0 0 0 0 0 0 0 0 0 0 -0 -0 -0 -0 0 0 0 0 0 1 1 0 1 1 1 1 1 1 0 0 0 0 0 1 1 0 0 0 0 0 0 0 0 0 0
0 0 0 0 0 0 0 0 0 0 0 0 0 0 0 0 -0 -0 0 0 0 0 0 0 0 1 1 2 2 1 0 1 0 0 0 1 1 1 1 0 0 0 0 0 0 0 0 0 0
0 0 0 0 0 0 0 0 0 0 0 0 0 0 -0 0 0 0 0 0 0 0 0 0 1 0 2 2 1 1 1 0 0 0 0 0 1 0 0 0 0 1 0 0 0 0 0 1 1
0 0 0 0 0 0 0 0 0 0 0 0 0 0 0 0 0 0 0 0 0 0 0 0 1 3 2 2 2 1 1 0 0 0 0 0 0 0 0 0 1 0 0 0 0 0 0 1 1
0 0 0 0 0 0 0 0 0 0 0 0 0 0 0 -0 0 0 0 0 0 0 0 0 0 1 5 0 0 0 1 1 1 0 0 0 1 0 0 0 1 0 0 0 0 1 2 2 1
0 0 0 0 0 0 0 0 0 0 0 0 0 0 0 0 0 0 0 0 0 0 0 0 0 0 0 3 6 3 1 0 1 0 1 1 1 0 1 1 1 2 0 1 0 2 3 2 3
0 0 0 0 0 0 0 0 0 0 0 0 0 0 0 0 0 0 0 0 0 0 0 0 0 0 0 0 2 7 7 6 2 1 1 0 1 1 1 1 2 2 1 2 3 3 4 3 3
0 0 0 0 0 0 0 0 0 0 0 0 0 0 0 0 0 0 0 0 0 0 0 0 0 0 0 0 0 2 3 3 3 3 2 1 1 1 2 2 2 3 3 3 4 3 3 2 4
0 0 0 0 0 0 0 0 0 0 0 0 0 0 0 0 0 0 0 0 0 0 0 0 0 0 0 0 0 0 1 1 2 4 3 5 3 1 1 2 2 3 3 4 6 4 4 3 2
0 0 0 0 0 0 0 0 0 0 0 0 0 0 0 0 0 0 0 0 0 0 0 0 0 0 0 0 0 0 0 1 1 2 4 4 4 3 3 3 4 3 3 3 4 5 4 3 3
-0 0 0 0 0 0 0 0 0 0 0 0 0 0 0 0 0 0 0 0 0 0 0 0 0 0 0 0 0 0 0 1 1 2 1 3 3 3 5 4 4 3 3 4 4 4 3 3 3
0 0 0 0 0 0 0 0 0 0 0 0 0 0 0 0 0 0 0 0 0 0 0 0 0 0 0 0 0 0 0 0 0 1 1 1 1 2 5 4 3 3 4 3 4 4 3 2 2
0 0 0 0 0 0 0 0 0 0 -0 -0 0 0 0 0 0 0 0 0 0 0 0 0 0 0 0 0 0 0 0 0 0 3 3 1 3 3 5 3 3 2 2 3 5 3 2 2 3
0 0 0 0 0 0 0 0 0 0 0 0 0 0 0 0 0 0 0 0 0 0 0 0 0 0 0 0 0 0 0 0 0 1 3 2 3 3 4 2 3 2 3 3 4 3 2 3 4
0 0 0 0 0 0 0 0 0 0 0 0 0 0 0 0 0 0 0 0 0 0 0 0 0 0 0 0 0 0 0 0 0 0 1 1 2 2 2 2 3 3 3 3 4 3 3 3 4
0 0 0 0 0 0 0 0 0 0 0 0 0 0 0 0 0 0 0 0 0 0 0 0 0 0 0 0 0 0 0 0 0 0 1 1 1 1 1 2 2 2 2 3 2 3 4 3 3
Wind_Speed_500mb
17 13 1 5 13 12 25 8 6 10 13 4 2 13 18 29 25 5 9 9 17 42 42 41 42 48 49 47 49 50 48 46 44 42 43 44 43 42 40 37 35 32 29 26 23 20 17 16 15
10 5 3 5 15 18 21 5 18 7 10 10 12 15 20 24 15 28 31 23 23 45 48 46 45 49 53 52 54 55 53 51 48 46 45 44 43 40 38 35 32 29 26 23 20 18 15 14 14
6 5 16 7 14 18 17 5 9 11 10 4 7 10 9 1 18 33 25 18 27 49 53 50 48 52 57 57 57 57 56 54 51 49 47 44 41 38 35 32 29 26 23 19 17 15 13 12 12
5 8 9 16 18 8 17 10 11 14 14 6 11 14 9 6 36 42 35 37 38 55 61 55 52 56 60 61 61 59 57 54 52 49 46 43 39 36 32 28 25 23 20 18 14 12 10 7 7
11 15 19 19 11 12 14 20 15 16 17 17 7 11 12 13 41 41 26 25 49 56 64 61 58 58 63 66 66 63 59 55 51 47 44 40 36 32 28 25 22 19 17 14 11 9 6 3 2
23 16 21 24 28 20 23 12 18 12 10 12 11 21 4 27 46 43 18 25 44 58 60 67 64 62 64 65 67 67 62 58 53 46 41 37 33 29 25 22 20 17 15 12 10 9 6 5 6
33 21 31 35 34 21 29 31 22 20 23 5 20 21 9 33 45 40 15 21 43 56 58 70 70 67 67 67 67 68 65 61 55 48 40 35 32 28 25 22 19 16 15 13 11 11 10 11 13
33 24 40 37 36 36 27 26 36 28 26 20 13 10 25 36 43 35 17 16 42 55 55 56 72 74 71 70 68 66 65 61 57 52 45 38 33 30 27 25 22 19 17 16 14 15 15 16 17
29 25 33 45 41 29 31 28 33 25 28 32 20 25 29 36 37 28 18 12 38 50 52 52 57 71 73 67 71 69 65 61 57 52 48 41 37 35 32 29 26 24 22 20 19 19 20 20 23
31 30 49 40 36 22 37 39 27 21 38 41 39 31 25 39 33 29 21 8 34 46 51 51 53 56 59 54 58 71 67 64 60 57 52 47 41 35 35 34 31 29 28 26 25 25 27 27 22
30 43 35 43 32 30 33 23 25 31 38 45 41 31 41 41 33 27 19 11 23 39 46 51 51 53 56 53 52 60 57 63 64 60 56 53 44 40 39 34 34 34 33 32 29 31 32 29 23
28 31 42 29 35 28 35 32 27 37 49 34 48 47 50 40 37 30 20 12 14 30 48 49 48 52 60 53 53 49 52 50 48 53 58 53 50 47 39 33 27 33 28 30 27 25 28 31 29
33 30 21 34 34 37 35 40 35 40 16 31 43 41 41 47 43 29 17 13 12 14 33 51 57 59 67 68 49 50 50 49 48 52 59 55 52 49 43 38 36 32 30 29 30 28 29 31 33
4 25 26 29 35 34 36 42 39 34 26 37 38 37 39 34 29 23 17 13 15 14 20 36 51 65 69 71 70 68 62 56 59 49 55 60 58 54 45 44 42 40 35 29 27 26 28 32 29
16 23 30 33 35 35 26 39 41 31 21 32 42 41 34 21 14 9 7 8 9 17 22 29 41 52 73 77 75 76 74 71 67 62 66 62 57 55 49 43 43 39 35 37 32 33 37 35 32
19 16 27 20 14 26 18 30 10 13 7 17 20 24 24 22 15 7 4 7 16 14 26 31 35 41 58 73 67 69 76 76 71 69 72 65 60 56 44 46 51 40 37 36 30 32 34 33 33
19 23 20 18 12 5 21 18 17 13 9 14 19 28 20 21 15 11 5 8 16 18 16 17 27 34 32 40 59 71 78 83 82 79 75 63 52 52 42 47 55 41 32 38 32 32 32 33 38
16 19 15 18 16 17 22 27 23 25 25 28 29 29 27 29 24 20 16 11 9 17 15 16 20 30 55 49 52 58 62 73 78 83 76 72 71 62 42 38 46 49 45 36 34 29 38 38 35
11 15 18 10 7 20 25 26 30 31 37 36 37 34 32 32 32 28 23 21 19 22 20 17 19 24 37 74 73 66 63 60 62 71 83 78 81 74 67 45 72 87 37 29 53 65 54 44 42
18 20 23 15 13 17 26 34 33 34 32 41 38 38 32 28 28 25 21 18 19 20 25 24 20 22 29 35 47 82 73 84 71 91 87 87 94 88 77 68 86 84 48 37 71 59 58 43 43
22 21 16 18 20 30 25 38 18 12 14 14 20 19 21 22 22 18 17 22 25 26 29 29 27 27 28 30 37 42 47 58 55 79 89 98 93 94 78 94 93 78 60 73 77 60 58 42 42
24 10 11 16 19 17 1 10 18 17 12 13 9 6 9 17 18 11 9 15 22 26 27 30 30 30 28 28 33 39 43 51 61 61 60 65 89 91 97 95 81 70 68 72 65 65 60 52 39
16 4 16 21 26 26 31 15 9 12 14 21 6 4 5 2 4 4 9 11 17 23 29 31 32 30 30 34 33 36 44 48 48 44 66 49 69 85 87 89 84 72 77 67 74 65 62 47 38
3 20 25 26 21 22 20 13 13 16 14 10 8 11 5 2 4 4 9 19 24 23 26 39 41 38 32 32 38 41 42 47 49 52 53 50 47 62 86 82 76 75 74 75 69 65 60 49 42
20 20 17 17 17 12 10 10 15 10 4 12 15 17 14 13 9 13 23 22 25 26 26 26 32 46 41 41 37 41 47 48 52 63 61 63 54 54 66 86 83 71 70 64 68 62 53 48 43
16 16 16 12 15 13 8 11 14 13 9 12 12 17 22 21 17 21 23 26 30 28 28 32 35 41 49 51 49 46 47 50 49 52 61 68 73 84 86 82 69 59 63 61 63 56 49 43 41
9 19 10 16 31 23 20 14 21 24 12 8 15 15 21 14 22 27 31 33 32 27 30 32 35 39 45 53 59 57 55 54 54 54 57 68 78 79 79 75 71 58 57 57 57 51 45 42 39
27 10 10 16 14 24 16 19 16 25 3 9 9 9 15 25 35 40 41 39 37 36 35 35 36 39 41 48 58 63 59 56 56 58 59 62 70 77 69 65 61 56 56 54 56 45 42 39 38
19 26 17 16 20 21 24 9 15 4 12 6 7 17 38 48 46 44 49 47 45 42 41 43 45 45 44 45 49 52 62 63 57 56 59 59 64 70 64 58 55 54 52 56 55 44 39 39 36
23 25 24 20 21 17 20 30 14 10 5 12 31 33 35 42 43 44 48 51 52 50 47 48 45 46 46 46 48 49 51 59 63 60 59 55 54 57 52 47 46 48 50 55 50 46 39 38 36
Wind_Direction_500mb
336 350 221 227 236 242 240 196 306 146 169 161 239 255 283 305 305 9 38 358 178 177 187 192 190 174 170 167 167 169 167 159 155 154 149 147 146 144 144 145 146 144 143 140 137 133 126 121 115
314 349 276 235 256 219 231 183 219 205 32 306 249 248 242 262 339 315 292 291 192 188 183 187 190 178 173 166 166 165 164 160 157 155 153 152 150 149 149 149 148 146 141 138 136 132 130 126 117
300 174 259 239 248 250 278 117 270 140 347 263 264 299 294 159 323 319 290 292 205 194 186 183 187 180 178 172 167 165 164 163 160 160 159 158 154 154 153 152 149 144 142 142 140 139 134 124 117
238 236 231 249 238 31 304 333 3 196 320 214 318 277 301 157 340 320 279 266 203 195 188 182 185 180 179 178 173 170 168 167 165 164 163 162 161 158 157 156 153 151 153 152 148 144 136 124 110
226 252 251 241 215 220 245 288 317 277 282 270 317 319 299 317 339 336 305 226 195 189 186 182 183 182 179 179 177 174 172 171 170 169 169 169 167 166 166 165 164 165 166 163 164 166 159 166 159
224 258 241 237 233 214 216 253 281 292 286 275 271 309 272 355 348 347 325 207 194 187 183 184 181 183 183 183 182 178 177 176 176 176 176 176 177 179 179 181 181 182 187 186 194 199 211 237 259
238 227 248 250 251 213 229 217 254 282 292 287 332 300 319 344 347 349 348 202 191 190 183 186 182 186 185 186 186 184 183 183 183 183 186 187 189 191 195 198 201 202 209 214 221 227 232 247 261
238 247 251 245 250 235 225 219 231 242 276 313 307 316 326 334 341 349 345 186 184 190 185 186 185 189 189 191 191 192 189 190 190 191 193 199 201 204 208 211 214 221 227 236 240 245 248 248 253
228 235 239 240 240 250 228 212 213 240 260 289 293 297 313 327 330 340 346 182 185 190 188 188 189 191 191 195 197 197 197 198 199 201 202 205 210 215 219 222 228 232 236 243 247 256 258 257 260
217 228 241 244 250 247 237 226 209 217 248 261 284 289 300 323 325 331 344 238 194 196 195 193 193 193 192 193 200 200 204 204 206 209 210 212 215 223 223 230 233 240 244 248 255 261 261 261 256
224 243 245 245 239 247 258 232 239 216 252 261 287 296 302 307 311 324 323 333 224 214 201 197 201 194 194 193 198 202 204 209 211 213 216 217 221 227 232 237 242 244 251 256 265 269 268 264 247
246 240 253 258 238 241 242 248 252 256 259 267 279 285 293 291 296 300 312 304 269 215 213 208 205 202 196 198 200 201 202 208 209 215 217 219 225 233 234 237 241 253 249 256 251 259 261 265 255
238 247 232 240 248 245 251 250 262 271 262 271 283 284 284 287 287 283 289 283 274 231 215 216 216 206 207 201 205 200 204 211 214 220 229 233 235 239 243 242 249 246 252 249 252 256 257 266 267
245 252 235 234 241 244 254 258 249 253 242 247 258 288 287 287 283 276 270 284 264 244 242 221 222 232 222 215 212 216 214 217 218 218 228 232 240 246 243 252 258 258 254 249 251 256 261 272 261
245 250 234 234 241 246 262 257 240 251 251 259 264 267 270 268 279 273 290 283 263 239 246 266 234 227 232 232 225 228 230 225 236 232 237 240 243 248 257 263 265 259 254 262 269 276 276 274 271
239 241 242 196 220 222 224 254 113 170 220 228 256 248 255 258 263 264 335 292 270 244 228 242 256 234 228 234 236 239 240 247 239 240 243 244 246 253 261 259 253 258 255 268 257 264 278 278 271
206 256 215 152 211 206 222 256 149 213 264 274 262 255 260 269 263 256 287 284 279 278 259 225 226 227 219 233 239 239 238 240 244 247 247 249 251 257 254 260 264 260 257 264 255 257 263 272 273
223 231 215 250 166 241 248 251 240 246 249 260 272 274 267 268 270 277 292 296 300 302 298 270 236 213 220 231 230 236 238 246 248 243 247 252 253 248 240 253 263 283 265 260 273 279 280 267 261
275 261 259 240 277 271 260 266 267 257 257 247 253 258 270 263 270 272 284 309 314 308 304 301 271 234 211 228 232 239 240 236 236 249 241 237 253 247 248 242 263 254 254 258 290 277 277 265 262
242 248 252 277 263 288 277 282 277 264 255 243 241 241 242 256 273 280 281 296 316 324 306 290 281 271 234 227 230 238 247 250 245 246 241 240 243 241 238 241 243 253 245 283 273 269 273 255 251
234 262 281 281 313 273 276 266 218 206 229 196 208 218 248 266 287 284 289 307 313 312 303 298 282 274 270 254 241 239 241 237 244 245 248 252 244 239 238 244 239 251 247 246 251 267 262 238 246
264 185 271 277 281 288 53 285 191 202 187 176 145 218 258 258 287 280 296 302 296 298 295 298 290 279 275 268 260 238 239 238 239 247 256 241 244 235 229 235 243 248 262 257 261 271 256 236 230
284 269 269 286 278 279 252 237 207 186 195 162 61 27 337 184 183 291 307 313 318 310 299 298 296 290 278 266 258 255 249 248 249 245 241 244 235 234 240 242 253 257 256 260 270 260 248 235 230
306 252 254 252 258 247 232 242 214 175 215 152 302 307 267 255 274 282 312 313 309 314 310 293 291 292 290 278 266 259 255 253 245 245 239 238 234 240 237 240 252 256 262 267 259 242 240 235 248
236 257 272 238 203 244 98 259 269 138 177 290 310 300 251 231 282 302 309 313 302 295 299 306 298 289 288 285 275 267 262 256 255 244 242 239 234 236 244 247 252 261 259 255 246 238 235 246 249
236 296 282 282 278 297 203 249 128 103 285 283 265 283 261 258 277 293 301 305 311 289 292 301 304 300 291 285 282 274 268 265 259 259 250 244 246 245 250 259 261 259 252 253 236 232 235 247 252
250 237 326 298 263 259 249 223 227 206 203 202 273 304 270 256 280 297 306 309 308 301 287 295 300 302 298 292 280 273 268 266 262 259 263 255 246 247 256 258 260 254 241 240 228 227 238 244 241
262 329 229 213 263 258 247 255 252 188 293 332 299 296 300 293 298 301 302 301 307 303 296 290 293 300 300 294 284 272 265 265 264 260 258 259 252 247 242 248 252 244 231 224 225 224 231 234 227
213 230 229 299 278 273 284 275 73 324 298 315 289 304 302 293 287 291 294 296 297 296 290 289 289 291 296 295 286 277 266 260 261 260 256 257 250 244 241 236 239 227 219 216 223 217 213 219 215
282 271 229 236 228 234 277 277 353 308 296 273 287 308 304 300 292 286 286 291 291 290 287 281 281 288 290 291 287 277 268 260 255 255 252 253 242 234 226 219 217 210 210 215 217 208 203 205 217
Wind_Speed_850mb
17 13 1 5 13 12 25 8 6 10 13 4 2 13 18 29 25 5 9 9 17 42 42 41 42 48 49 47 49 50 48 46 44 42 43 44 43 42 40 37 35 32 29 26 23 20 17 16 15
10 5 3 5 15 18 21 5 18 7 10 10 12 15 20 24 15 28 31 23 23 45 48 46 45 49 53 52 54 55 53 51 48 46 45 44 43 40 38 35 32 29 26 23 20 18 15 14 14
6 5 16 7 14 18 17 5 9 11 10 4 7 10 9 1 18 33 25 18 27 49 53 50 48 52 57 57 57 57 56 54 51 49 47 44 41 38 35 32 29 26 23 19 17 15 13 12 12
5 8 9 16 18 8 17 10 11 14 14 6 11 14 9 6 36 42 35 37 38 55 61 55 52 56 60 61 61 59 57 54 52 49 46 43 39 36 32 28 25 23 20 18 14 12 10 7 7
11 15 19 19 11 12 14 20 15 16 17 17 7 11 12 13 41 41 26 25 49 56 64 61 58 58 63 66 66 63 59 55 51 47 44 40 36 32 28 25 22 19 17 14 11 9 6 3 2
23 16 21 24 28 20 23 12 18 12 10 12 11 21 4 27 46 43 18 25 44 58 60 67 64 62 64 65 67 67 62 58 53 46 41 37 33 29 25 22 20 17 15 12 10 9 6 5 6
33 21 31 35 34 21 29 31 22 20 23 5 20 21 9 33 45 40 15 21 43 56 58 70 70 67 67 67 67 68 65 61 55 48 40 35 32 28 25 22 19 16 15 13 11 11 10 11 13
33 24 40 37 36 36 27 26 36 28 26 20 13 10 25 36 43 35 17 16 42 55 55 56 72 74 71 70 68 66 65 61 57 52 45 38 33 30 27 25 22 19 17 16 14 15 15 16 17
29 25 33 45 41 29 31 28 33 25 28 32 20 25 29 36 37 28 18 12 38 50 52 52 57 71 73 67 71 69 65 61 57 52 48 41 37 35 32 29 26 24 22 20 19 19 20 20 23
31 30 49 40 36 22 37 39 27 21 38 41 39 31 25 39 33 29 21 8 34 46 51 51 53 56 59 54 58 71 67 64 60 57 52 47 41 35 35 34 31 29 28 26 25 25 27 27 22
30 43 35 43 32 30 33 23 25 31 38 45 41 31 41 41 33 27 19 11 23 39 46 51 51 53 56 53 52 60 57 63 64 60 56 53 44 40 39 34 34 34 33 32 29 31 32 29 23
28 31 42 29 35 28 35 32 27 37 49 34 48 47 50 40 37 30 20 12 14 30 48 49 48 52 60 53 53 49 52 50 48 53 58 53 50 47 39 33 27 33 28 30 27 25 28 31 29
33 30 21 34 34 37 35 40 35 40 16 31 43 41 41 47 43 29 17 13 12 14 33 51 57 59 67 68 49 50 50 49 48 52 59 55 52 49 43 38 36 32 30 29 30 28 29 31 33
4 25 26 29 35 34 36 42 39 34 26 37 38 37 39 34 29 23 17 13 15 14 20 36 51 65 69 71 70 68 62 56 59 49 55 60 58 54 45 44 42 40 35 29 27 26 28 32 29
16 23 30 33 35 35 26 39 41 31 21 32 42 41 34 21 14 9 7 8 9 17 22 29 41 52 73 77 75 76 74 71 67 62 66 62 57 55 49 43 43 39 35 37 32 33 37 35 32
19 16 27 20 14 26 18 30 10 13 7 17 20 24 24 22 15 7 4 7 16 14 26 31 35 41 58 73 67 69 76 76 71 69 72 65 60 56 44 46 51 40 37 36 30 32 34 33 33
19 23 20 18 12 5 21 18 17 13 9 14 19 28 20 21 15 11 5 8 16 18 16 17 27 34 32 40 59 71 78 83 82 79 75 63 52 52 42 47 55 41 32 38 32 32 32 33 38
16 19 15 18 16 17 22 27 23 25 25 28 29 29 27 29 24 20 16 11 9 17 15 16 20 30 55 49 52 58 62 73 78 83 76 72 71 62 42 38 46 49 45 36 34 29 38 38 35
11 15 18 10 7 20 25 26 30 31 37 36 37 34 32 32 32 28 23 21 19 22 20 17 19 24 37 74 73 66 63 60 62 71 83 78 81 74 67 45 72 87 37 29 53 65 54 44 42
18 20 23 15 13 17 26 34 33 34 32 41 38 38 32 28 28 25 21 18 19 20 25 24 20 22 29 35 47 82 73 84 71 91 87 87 94 88 77 68 86 84 48 37 71 59 58 43 43
22 21 16 18 20 30 25 38 18 12 14 14 20 19 21 22 22 18 17 22 25 26 29 29 27 27 28 30 37 42 47 58 55 79 89 98 93 94 78 94 93 78 60 73 77 60 58 42 42
24 10 11 16 19 17 1 10 18 17 12 13 9 6 9 17 18 11 9 15 22 26 27 30 30 30 28 28 33 39 43 51 61 61 60 65 89 91 97 95 81 70 68 72 65 65 60 52 39
16 4 16 21 26 26 31 15 9 12 14 21 6 4 5 2 4 4 9 11 17 23 29 31 32 30 30 34 33 36 44 48 48 44 66 49 69 85 87 89 84 72 77 67 74 65 62 47 38
3 20 25 26 21 22 20 13 13 16 14 10 8 11 5 2 4 4 9 19 24 23 26 39 41 38 32 32 38 41 42 47 49 52 53 50 47 62 86 82 76 75 74 75 69 65 60 49 42
20 20 17 17 17 12 10 10 15 10 4 12 15 17 14 13 9 13 23 22 25 26 26 26 32 46 41 41 37 41 47 48 52 63 61 63 54 54 66 86 83 71 70 64 68 62 53 48 43
16 16 16 12 15 13 8 11 14 13 9 12 12 17 22 21 17 21 23 26 30 28 28 32 35 41 49 51 49 46 47 50 49 52 61 68 73 84 86 82 69 59 63 61 63 56 49 43 41
9 19 10 16 31 23 20 14 21 24 12 8 15 15 21 14 22 27 31 33 32 27 30 32 35 39 45 53 59 57 55 54 54 54 57 68 78 79 79 75 71 58 57 57 57 51 45 42 39
27 10 10 16 14 24 16 19 16 25 3 9 9 9 15 25 35 40 41 39 37 36 35 35 36 39 41 48 58 63 59 56 56 58 59 62 70 77 69 65 61 56 56 54 56 45 42 39 38
19 26 17 16 20 21 24 9 15 4 12 6 7 17 38 48 46 44 49 47 45 42 41 43 45 45 44 45 49 52 62 63 57 56 59 59 64 70 64 58 55 54 52 56 55 44 39 39 36
23 25 24 20 21 17 20 30 14 10 5 12 31 33 35 42 43 44 48 51 52 50 47 48 45 46 46 46 48 49 51 59 63 60 59 55 54 57 52 47 46 48 50 55 50 46 39 38 36
Wind_Direction_850mb
336 350 221 227 236 242 240 196 306 146 169 161 239 255 283 305 305 9 38 358 178 177 187 192 190 174 170 167 167 169 167 159 155 154 149 147 146 144 144 145 146 144 143 140 137 133 126 121 115
314 349 276 235 256 219 231 183 219 205 32 306 249 248 242 262 339 315 292 291 192 188 183 187 190 178 173 166 166 165 164 160 157 155 153 152 150 149 149 149 148 146 141 138 136 132 130 126 117
300 174 259 239 248 250 278 117 270 140 347 263 264 299 294 159 323 319 290 292 205 194 186 183 187 180 178 172 167 165 164 163 160 160 159 158 154 154 153 152 149 144 142 142 140 139 134 124 117
238 236 231 249 238 31 304 333 3 196 320 214 318 277 301 157 340 320 279 266 203 195 188 182 185 180 179 178 173 170 168 167 165 164 163 162 161 158 157 156 153 151 153 152 148 144 136 124 110
226 252 251 241 215 220 245 288 317 277 282 270 317 319 299 317 339 336 305 226 195 189 186 182 183 182 179 179 177 174 172 171 170 169 169 169 167 166 166 165 164 165 166 163 164 166 159 166 159
224 258 241 237 233 214 216 253 281 292 286 275 271 309 272 355 348 347 325 207 194 187 183 184 181 183 183 183 182 178 177 176 176 176 176 176 177 179 179 181 181 182 187 186 194 199 211 237 259
238 227 248 250 251 213 229 217 254 282 292 287 332 300 319 344 347 349 348 202 191 190 183 186 182 186 185 186 186 184 183 183 183 183 186 187 189 191 195 198 201 202 209 214 221 227 232 247 261
238 247 251 245 250 235 225 219 231 242 276 313 307 316 326 334 341 349 345 186 184 190 185 186 185 189 189 191 191 192 189 190 190 191 193 199 201 204 208 211 214 221 227 236 240 245 248 248 253
228 235 239 240 240 250 228 212 213 240 260 289 293 297 313 327 330 340 346 182 185 190 188 188 189 191 191 195 197 197 197 198 199 201 202 205 210 215 219 222 228 232 236 243 247 256 258 257 260
217 228 241 244 250 247 237 226 209 217 248 261 284 289 300 323 325 331 344 238 194 196 195 193 193 193 192 193 200 200 204 204 206 209 210 212 215 223 223 230 233 240 244 248 255 261 261 261 256
224 243 245 245 239 247 258 232 239 216 252 261 287 296 302 307 311 324 323 333 224 214 201 197 201 194 194 193 198 202 204 209 211 213 216 217 221 227 232 237 242 244 251 256 265 269 268 264 247
246 240 253 258 238 241 242 248 252 256 259 267 279 285 293 291 296 300 312 304 269 215 213 208 205 202 196 198 200 201 202 208 209 215 217 219 225 233 234 237 241 253 249 256 251 259 261 265 255
238 247 232 240 248 245 251 250 262 271 262 271 283 284 284 287 287 283 289 283 274 231 215 216 216 206 207 201 205 200 204 211 214 220 229 233 235 239 243 242 249 246 252 249 252 256 257 266 267
245 252 235 234 241 244 254 258 249 253 242 247 258 288 287 287 283 276 270 284 264 244 242 221 222 232 222 215 212 216 214 217 218 218 228 232 240 246 243 252 258 258 254 249 251 256 261 272 261
245 250 234 234 241 246 262 257 240 251 251 259 264 267 270 268 279 273 290 283 263 239 246 266 234 227 232 232 225 228 230 225 236 232 237 240 243 248 257 263 265 259 254 262 269 276 276 274 271
239 241 242 196 220 222 224 254 113 170 220 228 256 248 255 258 263 264 335 292 270 244 228 242 256 234 228 234 236 239 240 247 239 240 243 244 246 253 261 259 253 258 255 268 257 264 278 278 271
206 256 215 152 211 206 222 256 149 213 264 274 262 255 260 269 263 256 287 284 279 278 259 225 226 227 219 233 239 239 238 240 244 247 247 249 251 257 254 260 264 260 257 264 255 257 263 272 273
223 231 215 250 166 241 248 251 240 246 249 260 272 274 267 268 270 277 292 296 300 302 298 270 236 213 220 231 230 236 238 246 248 243 247 252 253 248 240 253 263 283 265 260 273 279 280 267 261
275 261 259 240 277 271 260 266 267 257 257 247 253 258 270 263 270 272 284 309 314 308 304 301 271 234 211 228 232 239 240 236 236 249 241 237 253 247 248 242 263 254 254 258 290 277 277 265 262
242 248 252 277 263 288 277 282 277 264 255 243 241 241 242 256 273 280 281 296 316 324 306 290 281 271 234 227 230 238 247 250 245 246 241 240 243 241 238 241 243 253 245 283 273 269 273 255 251
234 262 281 281 313 273 276 266 218 206 229 196 208 218 248 266 287 284 289 307 313 312 303 298 282 274 270 254 241 239 241 237 244 245 248 252 244 239 238 244 239 251 247 246 251 267 262 238 246
264 185 271 277 281 288 53 285 191 202 187 176 145 218 258 258 287 280 296 302 296 298 295 298 290 279 275 268 260 238 239 238 239 247 256 241 244 235 229 235 243 248 262 257 261 271 256 236 230
284 269 269 286 278 279 252 237 207 186 195 162 61 27 337 184 183 291 307 313 318 310 299 298 296 290 278 266 258 255 249 248 249 245 241 244 235 234 240 242 253 257 256 260 270 260 248 235 230
306 252 254 252 258 247 232 242 214 175 215 152 302 307 267 255 274 282 312 313 309 314 310 293 291 292 290 278 266 259 255 253 245 245 239 238 234 240 237 240 252 256 262 267 259 242 240 235 248
236 257 272 238 203 244 98 259 269 138 177 290 310 300 251 231 282 302 309 313 302 295 299 306 298 289 288 285 275 267 262 256 255 244 242 239 234 236 244 247 252 261 259 255 246 238 235 246 249
236 296 282 282 278 297 203 249 128 103 285 283 265 283 261 258 277 293 301 305 311 289 292 301 304 300 291 285 282 274 268 265 259 259 250 244 246 245 250 259 261 259 252 253 236 232 235 247 252
250 237 326 298 263 259 249 223 227 206 203 202 273 304 270 256 280 297 306 309 308 301 287 295 300 302 298 292 280 273 268 266 262 259 263 255 246 247 256 258 260 254 241 240 228 227 238 244 241
262 329 229 213 263 258 247 255 252 188 293 332 299 296 300 293 298 301 302 301 307 303 296 290 293 300 300 294 284 272 265 265 264 260 258 259 252 247 242 248 252 244 231 224 225 224 231 234 227
213 230 229 299 278 273 284 275 73 324 298 315 289 304 302 293 287 291 294 296 297 296 290 289 289 291 296 295 286 277 266 260 261 260 256 257 250 244 241 236 239 227 219 216 223 217 213 219 215
282 271 229 236 228 234 277 277 353 308 296 273 287 308 304 300 292 286 286 291 291 290 287 281 281 288 290 291 287 277 268 260 255 255 252 253 242 234 226 219 217 210 210 215 217 208 203 205 217